When you browse on this site, cookies collect data to enhance your experience and personalize the content and advertising you see.
Visit our Privacy Policy to learn more. By continuing to use the site, you agree to this use of cookies and data.
  • In Austria
  • List of Countries
  • For 7 days
  • Water Temperature
  • Weather Map
  • News
  • Weather Widgets
  • user-avatar
    Login

    Hourly Weather Abovyan

    Today, 29 February, Saturday

    Time Temperature Precipitation Wind Pressure Humidity
    00:00 +3°C° 0 mm 2 mps 668 mmHg 58%
    01:00 +4°C° 0 mm 1 mps 668 mmHg 59%
    02:00 +4°C° 0 mm 1 mps 668 mmHg 60%
    03:00 +3°C° 0 mm 1 mps 668 mmHg 59%
    04:00 +4°C° 0 mm 1 mps 668 mmHg 60%
    05:00 +4°C° 0 mm 1 mps 668 mmHg 61%
    06:00 +4°C° 0 mm 1 mps 668 mmHg 62%
    07:00 +5°C° 0 mm 1 mps 668 mmHg 59%
    08:00 +6°C° 0 mm 1 mps 668 mmHg 57%
    09:00 +7°C° 0 mm 1 mps 668 mmHg 56%
    10:00 +8°C° 0 mm 1 mps 667 mmHg 55%
    11:00 +9°C° 0 mm 1 mps 667 mmHg 54%
    12:00 +10°C° 0 mm 1 mps 667 mmHg 52%
    13:00 +10°C° 0 mm 1 mps 666 mmHg 53%
    14:00 +10°C° 0 mm 1 mps 666 mmHg 53%
    15:00 +10°C° 0 mm 1 mps 665 mmHg 53%
    16:00 +9°C° 0.1 mm 2 mps 665 mmHg 56%
    17:00 +8°C° 0.1 mm 2 mps 665 mmHg 59%
    18:00 +7°C° 0.1 mm 3 mps 666 mmHg 62%
    19:00 +7°C° 0.1 mm 3 mps 666 mmHg 65%
    20:00 +6°C° 0.1 mm 2 mps 665 mmHg 68%
    21:00 +6°C° 0.1 mm 2 mps 665 mmHg 71%
    22:00 +6°C° 0.2 mm 2 mps 665 mmHg 74%
    23:00 +6°C° 0.2 mm 2 mps 665 mmHg 77%

    Tomorrow, 1 March, Sunday

    Time Temperature Precipitation Wind Pressure Humidity
    00:00 +6°C° 0.2 mm 2 mps 665 mmHg 80%
    01:00 +6°C° 0.4 mm 2 mps 665 mmHg 82%
    02:00 +6°C° 0.4 mm 2 mps 665 mmHg 84%
    03:00 +5°C° 0.4 mm 2 mps 665 mmHg 86%
    04:00 +5°C° 0.3 mm 2 mps 665 mmHg 87%
    05:00 +6°C° 0.3 mm 1 mps 665 mmHg 88%
    06:00 +6°C° 0.3 mm 1 mps 665 mmHg 90%
    07:00 +6°C° 0 mm 1 mps 666 mmHg 87%
    08:00 +7°C° 0 mm 1 mps 666 mmHg 85%
    09:00 +6°C° 0 mm 0 mps 666 mmHg 83%
    10:00 +7°C° 0.2 mm 1 mps 666 mmHg 82%
    11:00 +8°C° 0.2 mm 1 mps 666 mmHg 81%
    12:00 +8°C° 0.2 mm 1 mps 667 mmHg 80%
    13:00 +8°C° 0.1 mm 1 mps 666 mmHg 77%
    14:00 +9°C° 0.1 mm 1 mps 666 mmHg 75%
    15:00 +9°C° 0.1 mm 1 mps 666 mmHg 72%
    16:00 +9°C° 0.1 mm 1 mps 666 mmHg 73%
    17:00 +7°C° 0.1 mm 2 mps 667 mmHg 73%
    18:00 +6°C° 0.1 mm 2 mps 667 mmHg 74%
    19:00 +6°C° 0 mm 2 mps 667 mmHg 73%
    20:00 +5°C° 0 mm 2 mps 668 mmHg 73%
    21:00 +5°C° 0 mm 2 mps 668 mmHg 72%
    22:00 +4°C° 0 mm 2 mps 668 mmHg 72%
    23:00 +4°C° 0 mm 2 mps 669 mmHg 72%

    Day after tomorrow, 2 March, Monday

    Time Temperature Precipitation Wind Pressure Humidity
    00:00 +4°C° 0 mm 2 mps 669 mmHg 72%
    01:00 +3°C° 0 mm 2 mps 669 mmHg 72%
    02:00 +3°C° 0 mm 2 mps 669 mmHg 71%
    03:00 +3°C° 0 mm 2 mps 669 mmHg 70%
    04:00 +2°C° 0 mm 2 mps 669 mmHg 70%
    05:00 +2°C° 0 mm 2 mps 669 mmHg 70%
    06:00 +2°C° 0 mm 2 mps 670 mmHg 69%
    07:00 +3°C° 0 mm 2 mps 670 mmHg 67%
    08:00 +5°C° 0 mm 1 mps 670 mmHg 64%
    09:00 +6°C° 0 mm 1 mps 671 mmHg 62%
    10:00 +7°C° 0 mm 1 mps 671 mmHg 60%
    11:00 +8°C° 0 mm 1 mps 671 mmHg 59%
    12:00 +9°C° 0 mm 1 mps 671 mmHg 58%
    13:00 +9°C° 0 mm 1 mps 671 mmHg 57%
    14:00 +9°C° 0 mm 1 mps 671 mmHg 57%
    15:00 +10°C° 0 mm 1 mps 671 mmHg 57%
    16:00 +9°C° 0 mm 1 mps 671 mmHg 59%
    17:00 +8°C° 0 mm 1 mps 671 mmHg 61%
    18:00 +8°C° 0 mm 1 mps 671 mmHg 63%
    19:00 +7°C° 0 mm 1 mps 672 mmHg 64%
    20:00 +6°C° 0 mm 1 mps 672 mmHg 66%
    21:00 +5°C° 0 mm 1 mps 672 mmHg 67%
    22:00 +5°C° 0 mm 1 mps 672 mmHg 67%
    23:00 +5°C° 0 mm 1 mps 672 mmHg 68%

    3 March, Tuesday

    Time Temperature Precipitation Wind Pressure Humidity
    00:00 +4°C° 0 mm 1 mps 673 mmHg 68%
    01:00 +4°C° 0 mm 1 mps 673 mmHg 68%
    02:00 +3°C° 0 mm 1 mps 673 mmHg 69%
    03:00 +3°C° 0 mm 1 mps 673 mmHg 69%
    04:00 +3°C° 0 mm 1 mps 673 mmHg 69%
    05:00 +3°C° 0 mm 1 mps 673 mmHg 69%
    06:00 +2°C° 0 mm 1 mps 673 mmHg 69%
    07:00 +4°C° 0 mm 1 mps 673 mmHg 66%
    08:00 +5°C° 0 mm 1 mps 674 mmHg 63%
    09:00 +6°C° 0 mm 1 mps 675 mmHg 59%
    10:00 +7°C° 0 mm 1 mps 674 mmHg 59%
    11:00 +8°C° 0 mm 1 mps 674 mmHg 58%
    12:00 +9°C° 0 mm 1 mps 674 mmHg 57%
    13:00 +10°C° 0 mm 1 mps 674 mmHg 56%
    14:00 +10°C° 0 mm 1 mps 673 mmHg 55%
    15:00 +11°C° 0 mm 1 mps 673 mmHg 55%
    16:00 +10°C° 0 mm 1 mps 673 mmHg 56%
    17:00 +9°C° 0 mm 1 mps 673 mmHg 58%
    18:00 +8°C° 0 mm 1 mps 673 mmHg 60%
    19:00 +7°C° 0 mm 1 mps 674 mmHg 59%
    20:00 +7°C° 0 mm 1 mps 674 mmHg 58%
    21:00 +6°C° 0 mm 1 mps 674 mmHg 57%
    22:00 +6°C° 0 mm 1 mps 674 mmHg 56%
    23:00 +5°C° 0 mm 1 mps 674 mmHg 54%

    4 March, Wednesday

    Time Temperature Precipitation Wind Pressure Humidity
    00:00 +5°C° 0 mm 1 mps 674 mmHg 53%
    01:00 +4°C° 0 mm 1 mps 674 mmHg 52%
    02:00 +4°C° 0 mm 1 mps 674 mmHg 52%
    03:00 +4°C° 0 mm 1 mps 674 mmHg 51%
    04:00 +4°C° 0 mm 1 mps 674 mmHg 52%
    05:00 +3°C° 0 mm 1 mps 674 mmHg 52%
    06:00 +3°C° 0 mm 1 mps 674 mmHg 52%
    07:00 +4°C° 0 mm 1 mps 674 mmHg 51%
    08:00 +6°C° 0 mm 1 mps 675 mmHg 49%
    09:00 +6°C° 0 mm 0 mps 675 mmHg 48%
    10:00 +8°C° 0 mm 1 mps 675 mmHg 48%
    11:00 +9°C° 0 mm 1 mps 675 mmHg 48%
    12:00 +10°C° 0 mm 1 mps 674 mmHg 49%
    13:00 +11°C° 0 mm 1 mps 674 mmHg 48%
    14:00 +11°C° 0 mm 1 mps 674 mmHg 46%
    15:00 +12°C° 0 mm 1 mps 674 mmHg 45%
    16:00 +11°C° 0 mm 1 mps 673 mmHg 46%
    17:00 +10°C° 0 mm 1 mps 673 mmHg 47%
    18:00 +9°C° 0 mm 1 mps 673 mmHg 48%
    19:00 +8°C° 0 mm 1 mps 673 mmHg 47%
    20:00 +8°C° 0 mm 1 mps 674 mmHg 45%
    21:00 +7°C° 0 mm 1 mps 674 mmHg 44%
    22:00 +7°C° 0 mm 1 mps 674 mmHg 44%
    23:00 +6°C° 0 mm 1 mps 674 mmHg 45%

    5 March, Thursday

    Time Temperature Precipitation Wind Pressure Humidity
    00:00 +6°C° 0 mm 1 mps 673 mmHg 45%
    01:00 +6°C° 0 mm 1 mps 673 mmHg 46%
    02:00 +5°C° 0 mm 1 mps 673 mmHg 47%
    03:00 +5°C° 0 mm 1 mps 673 mmHg 48%
    04:00 +5°C° 0 mm 1 mps 672 mmHg 49%
    05:00 +4°C° 0 mm 1 mps 672 mmHg 50%
    06:00 +4°C° 0 mm 1 mps 672 mmHg 51%
    07:00 +6°C° 0 mm 1 mps 672 mmHg 49%
    08:00 +7°C° 0 mm 1 mps 673 mmHg 48%
    09:00 +8°C° 0 mm 1 mps 673 mmHg 47%
    10:00 +9°C° 0 mm 1 mps 672 mmHg 46%
    11:00 +10°C° 0 mm 1 mps 672 mmHg 46%
    12:00 +11°C° 0 mm 1 mps 672 mmHg 45%
    13:00 +12°C° 0 mm 1 mps 671 mmHg 44%
    14:00 +12°C° 0 mm 1 mps 671 mmHg 43%
    15:00 +12°C° 0 mm 1 mps 670 mmHg 41%
    16:00 +12°C° 0 mm 1 mps 670 mmHg 41%
    17:00 +11°C° 0 mm 1 mps 670 mmHg 41%
    18:00 +9°C° 0 mm 2 mps 670 mmHg 40%
    19:00 +8°C° 0 mm 2 mps 670 mmHg 41%
    20:00 +8°C° 0 mm 2 mps 670 mmHg 42%
    21:00 +7°C° 0 mm 2 mps 670 mmHg 42%
    22:00 +7°C° 0 mm 2 mps 670 mmHg 44%
    23:00 +8°C° 0 mm 1 mps 670 mmHg 45%
    Show more